Location: *
(51.1248°S, 108.4023°W)
Time: 21:57:47
(UTC+00:00)

Cosmos 2184 Rocket - Pass Details

Date: 15 June 2021
Orbit: 960 x 1001 km, 82.9° (Epoch: 04 August)

Event Time Altitude Azimuth Distance (km) Brightness Sun altitude
Rises 13:04:17 0° 192° (SSW) 3,767 6.8 -19.5°
Reaches altitude 10° 13:06:52 10° 194° (SSW) 2,809 6.1 -19.1°
Maximum altitude 13:13:15 65° 274° (W) 1,102 4.0 -18.1°
Drops below altitude 10° 13:19:30 10° 354° (N) 2,756 6.5 -17.2°
Sets 13:22:01 0° 356° (N) 3,691 7.2 -16.8°
